OMA1553 LTBR-OOMS

Flight info

Callsign OMA1553
Flight time N/A
Altitude 35000
Route SULT1D SULTA UT409 ROXUK UN617 VAPEK UT38 UMDOT UA28 DOREN N131 LCA M601 BALMA UR655 CAK UN310 LATEB N310 BASEM R785 RASLI P559 GADLI T503 KSA M440 OTALI/N0454F370 M440 SITER DCT KATIT DCT MIDGU M717 PUTSO N685 LAKLU LAKL1A
Aircraft A321/M-SDE3FGHIRWY/LB1

Departure

Time N/A
Airport Bursa Yenişehir Airport (LTBR)

Arrival

Time 2026-05-05 18:31
Airport Muscat International Airport (OOMS)
Time Latitude Longitude Altitude Speed Heading
2026-05-05 17:40 22.73394 53.19683 36815 ft 488 kts 99°
2026-05-05 17:40 22.72954 53.23288 36815 ft 488 kts 99°
2026-05-05 17:41 22.72062 53.30577 36815 ft 488 kts 99°
2026-05-05 17:41 22.71166 53.37864 36815 ft 488 kts 99°
2026-05-05 17:42 22.70267 53.45158 36815 ft 488 kts 99°
2026-05-05 17:42 22.69364 53.52445 36815 ft 488 kts 99°
2026-05-05 17:43 22.68457 53.59742 36815 ft 488 kts 99°
2026-05-05 17:43 22.67548 53.67024 36815 ft 488 kts 99°
2026-05-05 17:44 22.66641 53.74266 36815 ft 488 kts 99°
2026-05-05 17:44 22.65724 53.81556 36815 ft 488 kts 99°
2026-05-05 17:45 22.64807 53.88815 36815 ft 487 kts 99°
2026-05-05 17:45 22.63885 53.96095 36815 ft 487 kts 99°
2026-05-05 17:46 22.62961 54.03362 36815 ft 487 kts 99°
2026-05-05 17:46 22.62036 54.10603 36815 ft 487 kts 99°
2026-05-05 17:47 22.61104 54.17875 36815 ft 487 kts 99°
2026-05-05 17:47 22.60174 54.25109 36815 ft 487 kts 99°
2026-05-05 17:48 22.59236 54.32375 36815 ft 487 kts 99°
2026-05-05 17:48 22.58294 54.39644 36815 ft 487 kts 99°
2026-05-05 17:49 22.57348 54.46918 36815 ft 488 kts 99°
2026-05-05 17:49 22.56398 54.54194 36816 ft 489 kts 99°
2026-05-05 17:50 22.55443 54.61489 36815 ft 489 kts 99°
2026-05-05 17:50 22.54492 54.68725 36815 ft 489 kts 99°
2026-05-05 17:51 22.53530 54.76013 36815 ft 489 kts 99°
2026-05-05 17:51 22.52565 54.83300 36815 ft 489 kts 99°
2026-05-05 17:52 22.51602 54.90547 36815 ft 489 kts 99°
2026-05-05 17:52 22.50630 54.97841 36815 ft 489 kts 99°
2026-05-05 17:53 22.49655 55.05118 36819 ft 486 kts 99°
2026-05-05 17:53 22.48691 55.12297 36821 ft 485 kts 99°
2026-05-05 17:54 22.47715 55.19542 36822 ft 486 kts 99°
2026-05-05 17:54 22.46737 55.26776 36823 ft 485 kts 99°
2026-05-05 17:55 22.46016 55.33992 36818 ft 486 kts 88°
2026-05-05 17:55 22.46548 55.37601 36823 ft 486 kts 73°
2026-05-05 17:55 22.47860 55.40959 36825 ft 484 kts 59°
2026-05-05 17:56 22.51470 55.47132 36827 ft 489 kts 56°
2026-05-05 17:56 22.55158 55.53329 36832 ft 488 kts 55°
2026-05-05 17:57 22.58830 55.59460 36836 ft 488 kts 55°
2026-05-05 17:57 22.62538 55.65626 36837 ft 488 kts 55°
2026-05-05 17:58 22.66249 55.71792 36838 ft 489 kts 55°
2026-05-05 17:58 22.69953 55.77936 36840 ft 489 kts 55°
2026-05-05 17:59 22.73681 55.84108 36841 ft 489 kts 55°
2026-05-05 17:59 22.77415 55.90284 36842 ft 489 kts 55°
2026-05-05 18:00 22.81151 55.96466 36836 ft 490 kts 55°
2026-05-05 18:00 22.83016 55.99560 36168 ft 490 kts 55°
2026-05-05 18:00 22.84874 56.02639 35085 ft 497 kts 55°
2026-05-05 18:00 22.86764 56.05772 34312 ft 495 kts 55°
2026-05-05 18:01 22.88641 56.08884 33839 ft 486 kts 55°
2026-05-05 18:01 22.90477 56.11930 33349 ft 478 kts 55°
2026-05-05 18:01 22.92287 56.14933 32865 ft 471 kts 55°
2026-05-05 18:01 22.94065 56.17884 32392 ft 464 kts 55°
2026-05-05 18:02 22.95823 56.20801 31924 ft 457 kts 55°
2026-05-05 18:02 22.97551 56.23668 31463 ft 451 kts 55°
2026-05-05 18:02 22.99237 56.26466 31013 ft 445 kts 55°
2026-05-05 18:02 23.00930 56.29278 30559 ft 440 kts 55°
2026-05-05 18:03 23.02583 56.32054 30112 ft 435 kts 56°
2026-05-05 18:03 23.04154 56.34840 29672 ft 429 kts 57°
2026-05-05 18:03 23.05696 56.37601 29235 ft 424 kts 57°
2026-05-05 18:03 23.07216 56.40323 28805 ft 419 kts 57°
2026-05-05 18:04 23.08701 56.42983 28430 ft 413 kts 57°
2026-05-05 18:04 23.11670 56.48300 28276 ft 416 kts 57°
2026-05-05 18:04 23.13203 56.51038 28204 ft 430 kts 57°
2026-05-05 18:05 23.14762 56.53825 28130 ft 432 kts 57°
2026-05-05 18:05 23.17859 56.59362 27980 ft 430 kts 57°
2026-05-05 18:05 23.19414 56.62146 27904 ft 430 kts 57°
2026-05-05 18:06 23.20967 56.64922 27829 ft 429 kts 57°
2026-05-05 18:06 23.21999 56.66767 27779 ft 429 kts 57°
2026-05-05 18:06 23.24072 56.70474 27679 ft 428 kts 57°
2026-05-05 18:06 23.25624 56.73248 27603 ft 428 kts 57°
2026-05-05 18:07 23.27170 56.76011 27528 ft 427 kts 57°
2026-05-05 18:07 23.28699 56.78746 27454 ft 427 kts 57°
2026-05-05 18:07 23.30242 56.81505 27378 ft 426 kts 57°
2026-05-05 18:07 23.31785 56.84265 27303 ft 426 kts 57°
2026-05-05 18:08 23.33196 56.87102 27226 ft 427 kts 64°
2026-05-05 18:08 23.34280 56.90104 27128 ft 427 kts 71°
2026-05-05 18:08 23.35028 56.93245 26726 ft 427 kts 77°
2026-05-05 18:08 23.35630 56.96346 26290 ft 421 kts 78°
2026-05-05 18:09 23.36227 56.99449 25862 ft 417 kts 78°
2026-05-05 18:09 23.36816 57.02536 25436 ft 415 kts 78°
2026-05-05 18:09 23.37398 57.05607 25012 ft 412 kts 78°
2026-05-05 18:09 23.38035 57.08633 24756 ft 409 kts 76°
2026-05-05 18:10 23.38716 57.11647 24228 ft 409 kts 76°
2026-05-05 18:10 23.39393 57.14634 23845 ft 403 kts 76°
2026-05-05 18:10 23.40062 57.17594 23472 ft 401 kts 76°
2026-05-05 18:10 23.40717 57.20499 23104 ft 399 kts 76°
2026-05-05 18:11 23.41374 57.23425 22734 ft 396 kts 76°
2026-05-05 18:11 23.42025 57.26328 22367 ft 393 kts 76°
2026-05-05 18:11 23.42671 57.29220 22001 ft 390 kts 76°
2026-05-05 18:11 23.43308 57.32075 21640 ft 387 kts 76°
2026-05-05 18:12 23.43940 57.34912 21281 ft 384 kts 76°
2026-05-05 18:12 23.44557 57.37685 20930 ft 381 kts 76°
2026-05-05 18:12 23.45178 57.40475 20578 ft 378 kts 76°
2026-05-05 18:12 23.45793 57.43243 20228 ft 375 kts 75°
2026-05-05 18:13 23.46404 57.45997 19880 ft 372 kts 75°
2026-05-05 18:13 23.47009 57.48724 19535 ft 369 kts 75°
2026-05-05 18:13 23.47608 57.51433 19193 ft 366 kts 75°
2026-05-05 18:13 23.48200 57.54116 18854 ft 363 kts 75°
2026-05-05 18:14 23.48626 57.56817 18492 ft 361 kts 83°
2026-05-05 18:14 23.48722 57.59545 18161 ft 359 kts 88°
2026-05-05 18:14 23.48723 57.62262 17828 ft 356 kts 89°
2026-05-05 18:14 23.48714 57.64915 17552 ft 353 kts 89°
2026-05-05 18:15 23.48700 57.67596 17252 ft 352 kts 89°
2026-05-05 18:15 23.48682 57.70258 16925 ft 349 kts 89°
2026-05-05 18:15 23.48660 57.72890 16602 ft 346 kts 89°
2026-05-05 18:15 23.48637 57.75503 16281 ft 343 kts 89°
2026-05-05 18:16 23.48613 57.78103 15962 ft 341 kts 89°
2026-05-05 18:16 23.48587 57.80642 15650 ft 338 kts 89°
2026-05-05 18:16 23.48561 57.83194 15336 ft 336 kts 89°
2026-05-05 18:16 23.48534 57.85732 15023 ft 333 kts 89°
2026-05-05 18:17 23.48506 57.88253 14713 ft 331 kts 89°
2026-05-05 18:17 23.48460 57.90756 14404 ft 329 kts 90°
2026-05-05 18:17 23.48418 57.93240 14097 ft 327 kts 90°
2026-05-05 18:17 23.48377 57.95706 13793 ft 324 kts 90°
2026-05-05 18:18 23.48336 57.98159 13490 ft 322 kts 90°
2026-05-05 18:18 23.48296 58.00564 13216 ft 322 kts 90°
2026-05-05 18:18 23.48254 58.03002 12873 ft 321 kts 90°
2026-05-05 18:18 23.48212 58.05408 12591 ft 316 kts 91°
2026-05-05 18:19 23.48169 58.07809 12375 ft 315 kts 91°
2026-05-05 18:19 23.48126 58.10199 12225 ft 316 kts 91°
2026-05-05 18:19 23.48084 58.12585 11942 ft 314 kts 91°
2026-05-05 18:19 23.48041 58.14961 11648 ft 313 kts 91°
2026-05-05 18:20 23.47998 58.17325 11356 ft 311 kts 91°
2026-05-05 18:20 23.47969 58.18888 11165 ft 310 kts 91°
2026-05-05 18:20 23.47913 58.21954 11027 ft 294 kts 92°
2026-05-05 18:20 23.47882 58.24155 10617 ft 294 kts 90°
2026-05-05 18:21 23.47990 58.26368 10299 ft 292 kts 86°
2026-05-05 18:21 23.48164 58.28559 9992 ft 288 kts 86°
2026-05-05 18:21 23.48344 58.30724 9726 ft 286 kts 86°
2026-05-05 18:21 23.48527 58.32887 9462 ft 287 kts 86°
2026-05-05 18:22 23.48711 58.35039 9198 ft 285 kts 86°
2026-05-05 18:22 23.48897 58.37199 8935 ft 284 kts 86°
2026-05-05 18:22 23.49081 58.39327 8676 ft 284 kts 86°
2026-05-05 18:22 23.49266 58.41465 8416 ft 283 kts 86°
2026-05-05 18:23 23.49451 58.43599 8156 ft 282 kts 86°
2026-05-05 18:23 23.49635 58.45724 7898 ft 281 kts 86°
2026-05-05 18:23 23.49808 58.47844 7647 ft 280 kts 86°
2026-05-05 18:23 23.49981 58.49954 7412 ft 280 kts 86°
2026-05-05 18:24 23.50156 58.52068 7160 ft 280 kts 86°
2026-05-05 18:24 23.50271 58.53465 6989 ft 279 kts 86°
2026-05-05 18:24 23.50501 58.56250 6653 ft 278 kts 86°
2026-05-05 18:24 23.50735 58.57626 6478 ft 279 kts 73°
2026-05-05 18:25 23.51709 58.59450 6206 ft 281 kts 50°
2026-05-05 18:25 23.52722 58.60367 6027 ft 282 kts 33°
2026-05-05 18:25 23.55169 58.61112 5830 ft 273 kts
2026-05-05 18:25 23.56975 58.60658 5741 ft 262 kts 335°
2026-05-05 18:26 23.58380 58.59464 5520 ft 256 kts 310°
2026-05-05 18:26 23.59282 58.57787 5204 ft 251 kts 297°
2026-05-05 18:26 23.60180 58.56131 4776 ft 255 kts 302°
2026-05-05 18:26 23.61192 58.54569 4352 ft 253 kts 305°
2026-05-05 18:27 23.61995 58.52911 4267 ft 247 kts 288°
2026-05-05 18:27 23.62337 58.51094 4097 ft 242 kts 274°
2026-05-05 18:27 23.62377 58.49276 3720 ft 238 kts 267°
2026-05-05 18:27 23.62298 58.47485 3360 ft 235 kts 265°
2026-05-05 18:28 23.62049 58.44017 2690 ft 227 kts 263°
2026-05-05 18:28 23.61916 58.42322 2374 ft 222 kts 263°
2026-05-05 18:28 23.61784 58.40665 2071 ft 217 kts 263°
2026-05-05 18:29 23.61655 58.39057 1776 ft 207 kts 263°
2026-05-05 18:29 23.61534 58.37478 1513 ft 209 kts 263°
2026-05-05 18:29 23.61412 58.35972 1264 ft 188 kts 263°
2026-05-05 18:29 23.61303 58.34629 1004 ft 167 kts 263°
2026-05-05 18:30 23.61202 58.33425 780 ft 153 kts 264°
2026-05-05 18:30 23.61112 58.32298 567 ft 147 kts 265°
2026-05-05 18:30 23.61018 58.31182 369 ft 149 kts 264°
2026-05-05 18:30 23.60927 58.30052 237 ft 150 kts 265°
2026-05-05 18:31 23.60842 58.28955 66 ft 135 kts 265°
2026-05-05 18:31 23.60776 58.28110 64 ft 86 kts 265°
2026-05-05 18:31 23.60735 58.27591 64 ft 59 kts 265°
2026-05-05 18:31 23.60703 58.27203 64 ft 42 kts 262°
2026-05-05 18:32 23.60613 58.26989 64 ft 27 kts 238°
2026-05-05 18:32 23.60523 58.26860 64 ft 21 kts 232°
2026-05-05 18:32 23.60430 58.26783 64 ft 13 kts 172°
2026-05-05 18:32 23.60408 58.26867 64 ft 14 kts 84°
2026-05-05 18:33 23.60418 58.26992 64 ft 20 kts 86°
2026-05-05 18:33 23.60431 58.27158 64 ft 23 kts 85°
2026-05-05 18:33 23.60446 58.27332 64 ft 23 kts 85°
2026-05-05 18:33 23.60459 58.27501 64 ft 22 kts 86°
2026-05-05 18:34 23.60418 58.27603 64 ft 15 kts 138°
2026-05-05 18:34 23.60331 58.27686 64 ft 17 kts 139°
2026-05-05 18:34 23.60240 58.27773 64 ft 17 kts 138°
2026-05-05 18:34 23.60201 58.27889 64 ft 17 kts 86°
2026-05-05 18:35 23.60211 58.28026 64 ft 20 kts 86°
2026-05-05 18:35 23.60220 58.28167 64 ft 12 kts 85°
2026-05-05 18:35 23.60227 58.28252 64 ft 11 kts 87°
2026-05-05 18:35 23.60231 58.28333 64 ft 10 kts 85°
2026-05-05 18:36 23.60210 58.28368 64 ft 5 kts 163°
2026-05-05 18:36 23.60176 58.28374 64 ft 5 kts 172°
2026-05-05 18:36 23.60145 58.28379 64 ft 4 kts 172°
2026-05-05 18:36 23.60124 58.28382 64 ft 0 kts 171°